Location: NCO
(38.4212°N, 77.1417°W)
Time: 07:25:58
(UTC-04:00)

Tiangong - Visible Passes

Search period start: 08 May 2026 00:00
Search period end: 18 May 2026 00:00
Orbit: 374 x 381 km, 41.5° (Epoch: 8 May)

Date Brightness Start Highest point End Pass type
(mag) Time Alt. Az. Time Alt. Az. Time Alt. Az.
8 May 0.3 03:31:17 20° E 03:31:17 20° E 03:32:23 10° ENE visible
8 May -1.4 05:03:20 12° W 05:06:02 48° N 05:09:05 10° ENE visible
9 May -1.8 04:04:06 60° N 04:04:06 60° N 04:07:07 10° ENE visible
10 May 1.1 03:04:52 12° ENE 03:04:52 12° ENE 03:05:09 10° ENE visible
10 May -1.2 04:36:55 19° WNW 04:38:52 44° N 04:41:53 10° ENE visible
11 May -0.6 03:37:40 35° NE 03:37:40 35° NE 03:39:48 10° ENE visible
11 May -1.5 05:10:36 10° WNW 05:13:41 55° N 05:16:45 10° E visible
12 May -1.2 04:10:31 32° NW 04:11:32 46° N 04:14:34 10° E visible
13 May 0.6 03:11:23 18° ENE 03:11:23 18° ENE 03:12:21 10° ENE visible
13 May -2.0 04:43:26 12° WNW 04:46:13 72° NNE 04:49:20 10° E visible
14 May -1.2 03:44:26 48° NE 03:44:26 48° NE 03:47:05 10° E visible
14 May -1.9 05:17:42 10° W 05:20:42 46° SSW 05:23:42 10° SE visible
15 May -2.4 04:17:44 45° W 04:18:34 81° SSW 04:21:41 10° ESE visible
16 May 0.9 03:19:17 11° E 03:19:17 11° E 03:19:26 10° E visible
16 May -1.2 04:51:24 19° WSW 04:52:52 28° SSW 04:55:36 10° SSE visible
17 May 0.5 03:53:26 12° SE 03:53:26 12° SE 03:53:44 10° SE visible
